GSAT0202 (GALILEO 6) (40129 NORAD) Tracking and Keplerian Element Data

This shows tracking and keplerian element data for the satellite.

Feedback or suggestion? Click here.




ElementValue
Catalog40129
NameGSAT0202 (GALILEO 6)
Epoch Orbit2683
Epoch Day198.4200307
Epoch Year2018
RAAN28.3914
Inclination50.5361
Eccentricity0.1653832
Argument of Perigee77.6798
Mean Anonmoly300.3532
Mean Motion1.85519161
Decay Rate-1.07E-06
L11 40129U 14050B 18198.42003070 -.00000107 00000-0 00000-0 0 9998
L22 40129 50.5361 28.3914 1653832 77.6798 300.3532 1.85519161 26839

Live tracking and technical data element details for GSAT0202 (GALILEO 6) (NORAD 40129). GSAT0202 (GALILEO 6) can be tracked NOW for your location showing map with azimuth and elevation plus other details from your city location.

Track the satellite on the map from your city or location and see movement details for azimuth, elevation, latitude, longitude, range, height, and movement on the map or in text.







IsCatalogInMostPopularTable: catalog: 40129, numindb: 51
Update: records affected: 1



GetName: 40129 GSAT0202 (GALILEO 6)

Hit Count: updated at: Wed, 18 Jul 2018 20:32:57 GMT